DW8501 Madrid ES current weather conditions

sailwx.info

Wind from 172 at 3 knots gusting 11

Air temperature 10.0° C
Dewpoint 9.8° C

Last reported at 2016-Dec-04 01:00 UTC.
Time now 2016-Dec-04 02:01 UTC

Location: N 40°27' W 003°35'.
View on Google Maps.

See reports from other nearby stations

  
Tides and Currents Weather Stations Pressure Air Temp Water Temp Dewpoint Dewpoint Depression Visibility Wind Speed Wind Dir Waves Ship Positions
date/time (UTC)wind fromknots sea level pressurealtimeterstation pressurevisibilityair tempwater tempwave heightnotes
2016-Dec-04 01:00 172 3 gusting 11 10.0
2016-Dec-04 00:55 173 3 gusting 11 10.0
2016-Dec-04 00:50 163 4 gusting 6 10.6
2016-Dec-04 00:45 155 3 gusting 9 10.6
2016-Dec-04 00:40 136 3 gusting 9 10.6
2016-Dec-04 00:35 142 1 gusting 11 10.6
2016-Dec-04 00:30 146 5 gusting 11 10.6
2016-Dec-04 00:25 148 6 gusting 9 10.6
2016-Dec-04 00:20 148 4 gusting 8 10.6
2016-Dec-04 00:15 142 4 gusting 6 10.6
2016-Dec-04 00:10 150 5 gusting 7 10.6
2016-Dec-04 00:05 147 4 gusting 7 10.6
2016-Dec-04 00:00 148 4 gusting 7 10.6
2016-Dec-03 23:55 143 1 gusting 6 10.6
2016-Dec-03 23:50 143 1 gusting 6 10.6
2016-Dec-03 23:45 147 3 gusting 6 10.6
2016-Dec-03 23:40 141 1 gusting 6 10.0
2016-Dec-03 23:35 127 0 gusting 5 10.0
2016-Dec-03 23:30 119 1 gusting 5 10.0
2016-Dec-03 23:25 112 1 gusting 4 10.0
2016-Dec-03 23:20 104 0 gusting 5 10.0
2016-Dec-03 23:15 106 1 gusting 5 10.0
2016-Dec-03 23:10 098 2 gusting 4 10.0
2016-Dec-03 23:05 103 1 gusting 3 10.0
2016-Dec-03 23:00 126 1 gusting 4 10.0
2016-Dec-03 22:55 117 1 gusting 4 10.0
2016-Dec-03 22:50 115 2 gusting 4 10.0
2016-Dec-03 22:45 128 1 gusting 5 10.6
2016-Dec-03 22:40 132 2 gusting 6 10.6
2016-Dec-03 22:35 140 2 gusting 6 10.6
2016-Dec-03 22:30 140 2 gusting 6 10.6
2016-Dec-03 22:25 136 2 gusting 6 10.6
2016-Dec-03 22:20 131 3 gusting 6 10.6
2016-Dec-03 22:15 133 5 gusting 9 10.6
2016-Dec-03 22:10 141 3 gusting 9 10.6
2016-Dec-03 22:05 139 5 gusting 8 11.1
2016-Dec-03 22:00 149 3 gusting 9 11.1
2016-Dec-03 21:55 156 4 gusting 9 11.1
2016-Dec-03 21:50 153 3 gusting 8 11.1
2016-Dec-03 21:45 157 4 gusting 7 11.1
2016-Dec-03 21:40 142 1 gusting 6 11.7
2016-Dec-03 21:35 130 1 gusting 6 11.7
2016-Dec-03 21:30 150 1 gusting 6 11.7
2016-Dec-03 21:25 149 3 gusting 6 11.7
2016-Dec-03 21:20 136 2 gusting 9 11.7
2016-Dec-03 21:15 163 2 gusting 9 11.7
2016-Dec-03 21:10 178 2 gusting 9 11.7
2016-Dec-03 21:05 175 6 gusting 9 11.7
2016-Dec-03 21:00 158 6 gusting 9 11.7
2016-Dec-03 20:55 142 1 gusting 6 11.7
2016-Dec-03 20:50 144 3 gusting 6 11.7
2016-Dec-03 20:45 155 3 gusting 6 11.7
2016-Dec-03 20:40 154 3 gusting 6 11.7
2016-Dec-03 20:35 147 1 gusting 6 11.7
2016-Dec-03 20:30 150 2 gusting 6 11.7
2016-Dec-03 20:25 136 2 gusting 7 11.7
2016-Dec-03 20:20 128 2 gusting 7 11.7
2016-Dec-03 20:15 125 4 gusting 7 11.7
2016-Dec-03 20:10 123 3 gusting 7 11.7
2016-Dec-03 20:05 133 1 gusting 6 11.7
2016-Dec-03 20:00 136 3 gusting 6 11.7
2016-Dec-03 19:55 132 1 gusting 6 11.7
2016-Dec-03 19:50 141 3 gusting 6 11.7
2016-Dec-03 19:45 154 1 gusting 6 12.2
2016-Dec-03 19:40 144 3 gusting 6 12.2
2016-Dec-03 19:35 143 2 gusting 6 11.7
2016-Dec-03 19:30 137 2 gusting 6 11.7
2016-Dec-03 19:25 124 3 gusting 6 11.7
2016-Dec-03 19:20 110 1 gusting 6 11.7
2016-Dec-03 19:15 098 1 gusting 6 11.7
2016-Dec-03 19:10 069 1 gusting 6 11.7
2016-Dec-03 19:05 061 1 gusting 2 11.7
2016-Dec-03 19:00 075 1 gusting 3 11.7
2016-Dec-03 18:55 075 1 gusting 3 11.7
2016-Dec-03 18:50 084 2 gusting 3 11.7
2016-Dec-03 18:45 067 0 gusting 4 11.7
2016-Dec-03 18:40 064 1 gusting 4 11.7
2016-Dec-03 18:35 082 1 gusting 3 11.7
2016-Dec-03 18:30 086 2 gusting 5 11.7
2016-Dec-03 18:25 074 0 gusting 5 11.7
2016-Dec-03 18:20 078 3 gusting 4 11.7
2016-Dec-03 18:15 088 1 gusting 3 11.7
2016-Dec-03 18:10 070 1 gusting 5 11.7
2016-Dec-03 18:05 061 1 gusting 6 11.7
2016-Dec-03 18:00 055 3 gusting 6 11.7
2016-Dec-03 17:55 053 3 gusting 6 11.7
2016-Dec-03 17:50 057 2 gusting 6 11.7
2016-Dec-03 17:45 055 4 gusting 6 11.7
2016-Dec-03 17:40 053 4 gusting 6 11.7
2016-Dec-03 17:35 056 3 gusting 6 11.7
2016-Dec-03 17:30 059 3 gusting 5 11.7
2016-Dec-03 17:25 049 3 gusting 6 11.7
2016-Dec-03 17:20 048 4 gusting 6 11.7
2016-Dec-03 17:15 061 3 gusting 6 11.7
2016-Dec-03 17:10 066 4 gusting 6 11.7
2016-Dec-03 17:05 063 4 gusting 6 12.2
2016-Dec-03 17:00 059 4 gusting 6 12.2
2016-Dec-03 16:55 051 3 gusting 6 12.2
2016-Dec-03 16:50 054 3 gusting 6 12.2
2016-Dec-03 16:45 053 5 gusting 6 12.2
2016-Dec-03 16:40 044 3 gusting 5 12.2
2016-Dec-03 16:35 047 3 gusting 5 12.2
2016-Dec-03 16:30 047 3 gusting 6 12.2
2016-Dec-03 16:25 050 3 gusting 6 12.2
2016-Dec-03 16:20 051 3 gusting 6 12.2
2016-Dec-03 16:15 049 3 gusting 6 12.2
2016-Dec-03 16:10 045 4 gusting 5 12.8
2016-Dec-03 16:05 054 3 gusting 5 12.8
2016-Dec-03 16:00 070 3 gusting 5 12.8
2016-Dec-03 15:55 067 3 gusting 8 13.3
2016-Dec-03 15:50 056 3 gusting 8 12.8
2016-Dec-03 15:45 059 5 gusting 7 13.3
2016-Dec-03 15:40 076 4 gusting 9 13.3
2016-Dec-03 15:35 074 6 gusting 9 13.3
2016-Dec-03 15:30 051 3 gusting 6 13.3
2016-Dec-03 15:25 051 3 gusting 7 13.3
2016-Dec-03 15:20 063 6 gusting 7 13.3
2016-Dec-03 15:15 069 5 gusting 7 13.3
2016-Dec-03 15:10 057 5 gusting 7 12.8
2016-Dec-03 15:05 052 6 gusting 7 13.3
2016-Dec-03 15:00 058 6 gusting 7 13.3
2016-Dec-03 14:55 065 5 gusting 7 12.8
2016-Dec-03 14:50 071 4 gusting 7 12.8
2016-Dec-03 14:45 074 4 gusting 6 13.3
2016-Dec-03 14:40 083 4 gusting 6 13.3
2016-Dec-03 14:35 069 1 gusting 6 13.3
2016-Dec-03 14:30 054 3 gusting 6 12.8
2016-Dec-03 14:25 046 3 gusting 6 12.8
2016-Dec-03 14:20 050 4 gusting 6 12.8
2016-Dec-03 14:15 053 2 gusting 6 12.2
2016-Dec-03 14:10 047 3 gusting 6 12.2
2016-Dec-03 14:05 047 3 gusting 6 11.7
2016-Dec-03 14:00 051 5 gusting 6 11.7
2016-Dec-03 13:55 042 5 gusting 6 11.7
2016-Dec-03 13:50 047 3 gusting 6 11.1
2016-Dec-03 13:45 061 3 gusting 6 11.7
2016-Dec-03 13:40 050 1 gusting 6 11.7
2016-Dec-03 13:35 024 3 gusting 5 11.7
2016-Dec-03 13:30 023 3 gusting 6 11.7
2016-Dec-03 13:25 043 1 gusting 6 11.1
2016-Dec-03 13:20 052 3 gusting 6 11.1
2016-Dec-03 13:15 049 3 gusting 6 11.1
2016-Dec-03 13:10 042 3 gusting 6 11.7
2016-Dec-03 13:05 056 1 gusting 7 11.7
2016-Dec-03 13:00 088 1 gusting 7 11.7
2016-Dec-03 12:55 101 2 gusting 5 11.7
2016-Dec-03 12:50 076 3 gusting 6 10.6
2016-Dec-03 12:45 053 2 gusting 6 10.6
2016-Dec-03 12:40 056 4 gusting 6 10.0
2016-Dec-03 12:35 060 3 gusting 6 10.0
2016-Dec-03 12:30 058 3 gusting 7 10.0
2016-Dec-03 12:25 057 3 gusting 7 10.0
2016-Dec-03 12:20 061 4 gusting 6 9.4
2016-Dec-03 12:15 072 3 gusting 6 9.4
2016-Dec-03 12:10 062 3 gusting 6 8.9
2016-Dec-03 12:05 055 5 gusting 7 8.9
2016-Dec-03 12:00 062 3 gusting 7 8.3
2016-Dec-03 11:55 076 6 gusting 6 8.3
2016-Dec-03 11:50 079 3 gusting 7 8.3
2016-Dec-03 11:45 078 3 gusting 7 7.8
2016-Dec-03 11:40 069 4 gusting 7 7.8
2016-Dec-03 11:35 071 5 gusting 7 7.8
2016-Dec-03 11:30 071 4 gusting 7 7.8
2016-Dec-03 11:25 064 5 gusting 8 7.8
2016-Dec-03 11:20 079 3 gusting 8 7.2
2016-Dec-03 11:15 071 6 gusting 6 7.2
2016-Dec-03 11:10 048 3 gusting 6 7.2
2016-Dec-03 11:05 065 2 gusting 6 6.7
2016-Dec-03 11:00 081 2 gusting 6 6.7
2016-Dec-03 10:55 082 3 gusting 6 6.7
2016-Dec-03 10:50 083 2 gusting 6 6.7
2016-Dec-03 10:45 091 3 gusting 4 6.7
2016-Dec-03 10:40 087 0 gusting 5 6.7
2016-Dec-03 10:35 094 3 gusting 6 6.7
2016-Dec-03 10:30 108 3 gusting 6 6.7
2016-Dec-03 10:25 093 1 gusting 6 6.7
2016-Dec-03 10:20 090 0 gusting 5 6.7
2016-Dec-03 10:15 091 3 gusting 6 6.1
2016-Dec-03 10:10 085 3 gusting 6 6.1
2016-Dec-03 10:05 087 3 gusting 6 6.1
2016-Dec-03 10:00 071 1 gusting 6 6.1
2016-Dec-03 09:55 045 3 gusting 6 6.1
2016-Dec-03 09:50 041 3 gusting 6 5.6
2016-Dec-03 09:45 042 3 gusting 6 5.6
2016-Dec-03 09:40 046 4 gusting 6 5.6
2016-Dec-03 09:35 049 4 gusting 6 5.6
2016-Dec-03 09:30 053 1 gusting 5 5.6
2016-Dec-03 09:25 060 1 gusting 5 5.6
2016-Dec-03 09:20 074 2 gusting 6 5.0
2016-Dec-03 09:15 066 3 gusting 6 5.0
2016-Dec-03 09:10 050 3 gusting 5 5.0
2016-Dec-03 09:05 047 3 gusting 6 5.0
2016-Dec-03 09:00 047 3 gusting 6 5.0
2016-Dec-03 08:55 045 3 gusting 6 5.0
2016-Dec-03 08:50 046 4 gusting 6 5.0
2016-Dec-03 08:45 062 3 gusting 5 5.0
2016-Dec-03 08:40 073 1 gusting 5 4.4
2016-Dec-03 08:35 075 1 gusting 6 4.4
2016-Dec-03 08:30 078 3 gusting 6 4.4
2016-Dec-03 08:25 059 2 gusting 5 4.4
2016-Dec-03 08:20 050 3 gusting 6 4.4
2016-Dec-03 08:15 069 3 gusting 6 4.4
2016-Dec-03 08:10 075 4 gusting 6 4.4
2016-Dec-03 08:05 075 6 gusting 6 4.4
2016-Dec-03 08:00 089 3 gusting 5 4.4
2016-Dec-03 07:55 095 0 gusting 3 4.4
2016-Dec-03 07:50 094 3 gusting 3 4.4
2016-Dec-03 07:45 095 3 gusting 4 4.4
2016-Dec-03 07:40 093 2 gusting 4 4.4
2016-Dec-03 07:35 087 3 gusting 4 4.4
2016-Dec-03 07:30 080 2 gusting 4 4.4
2016-Dec-03 07:25 063 3 gusting 4 4.4
2016-Dec-03 07:20 061 1 gusting 5 4.4
2016-Dec-03 07:15 056 3 gusting 6 4.4
2016-Dec-03 07:10 058 3 gusting 6 4.4
2016-Dec-03 07:05 061 4 gusting 6 4.4
2016-Dec-03 07:00 051 1 gusting 6 4.4
2016-Dec-03 06:55 046 4 gusting 6 4.4
2016-Dec-03 06:50 046 3 gusting 5 4.4
2016-Dec-03 06:45 045 3 gusting 5 4.4
2016-Dec-03 06:40 052 2 gusting 5 4.4
2016-Dec-03 06:35 054 3 gusting 6 4.4
2016-Dec-03 06:30 061 3 gusting 6 5.0
2016-Dec-03 06:25 066 3 gusting 5 5.0
2016-Dec-03 06:20 052 3 gusting 5 4.4
2016-Dec-03 06:15 060 3 gusting 3 4.4
2016-Dec-03 06:10 069 3 gusting 3 4.4
2016-Dec-03 06:05 061 1 gusting 4 4.4
2016-Dec-03 06:00 055 2 gusting 4 4.4
2016-Dec-03 05:55 048 3 gusting 6 4.4
2016-Dec-03 05:50 051 3 gusting 7 4.4
2016-Dec-03 05:45 046 3 gusting 7 4.4
2016-Dec-03 05:40 036 3 gusting 5 4.4
2016-Dec-03 05:35 043 3 gusting 5 4.4
2016-Dec-03 05:30 045 4 gusting 6 4.4
2016-Dec-03 05:25 044 4 gusting 6 4.4
2016-Dec-03 05:20 047 4 gusting 6 4.4
2016-Dec-03 05:15 042 3 gusting 6 4.4
2016-Dec-03 05:10 028 3 gusting 6 5.0
2016-Dec-03 05:05 032 3 gusting 5 5.0
2016-Dec-03 05:00 044 3 gusting 5 5.0
2016-Dec-03 04:55 047 1 gusting 4 5.0
2016-Dec-03 04:50 047 2 gusting 3 5.0
2016-Dec-03 04:45 045 1 gusting 3 5.0
2016-Dec-03 04:40 045 1 gusting 4 5.0
2016-Dec-03 04:35 046 2 gusting 4 5.0
2016-Dec-03 04:30 046 3 gusting 4 5.0
2016-Dec-03 04:25 5.0
2016-Dec-03 04:20 027 1 gusting 3 5.0
2016-Dec-03 04:15 358 1 gusting 3 5.0
2016-Dec-03 04:10 012 2 gusting 3 5.0
2016-Dec-03 04:05 018 2 gusting 3 5.0
2016-Dec-03 04:00 358 1 gusting 3 5.0
2016-Dec-03 03:55 5.0
2016-Dec-03 03:50 5.0
2016-Dec-03 03:45 5.0
2016-Dec-03 03:40 002 0 gusting 2 5.0
2016-Dec-03 03:35 008 1 gusting 2 5.0
2016-Dec-03 03:30 357 1 gusting 2 5.0
2016-Dec-03 03:25 357 1 gusting 2 5.0
2016-Dec-03 03:20 001 1 gusting 3 5.0
2016-Dec-03 03:15 013 1 gusting 3 5.0
2016-Dec-03 03:10 036 1 gusting 3 5.0
2016-Dec-03 03:05 039 1 gusting 3 5.6
2016-Dec-03 03:00 031 1 gusting 3 5.6
2016-Dec-03 02:55 033 1 gusting 3 5.6
2016-Dec-03 02:50 044 2 gusting 3 5.6
2016-Dec-03 02:45 062 1 gusting 1 5.0
2016-Dec-03 02:40 5.0
2016-Dec-03 02:35 5.0
2016-Dec-03 02:30 5.0
2016-Dec-03 02:25 228 0 gusting 1 5.0
2016-Dec-03 02:20 5.0
2016-Dec-03 02:15 5.0
2016-Dec-03 02:10 5.0
2016-Dec-03 02:05 5.6
2016-Dec-03 02:00 5.6
2016-Dec-03 01:55 5.6
2016-Dec-03 01:50 5.6
2016-Dec-03 01:45 011 1 gusting 2 5.6
2016-Dec-03 01:40 5.6
2016-Dec-03 01:35 027 1 gusting 3 5.6
2016-Dec-03 01:30 042 1 gusting 3 6.1
2016-Dec-03 01:25 040 1 gusting 6 6.1
2016-Dec-03 01:20 055 2 gusting 6 6.1
2016-Dec-03 01:15 069 1 gusting 4 6.1
2016-Dec-03 01:10 077 3 gusting 4 6.1
2016-Dec-03 01:05 082 3 gusting 5 6.1
2016-Dec-03 01:00 063 3 gusting 5 6.1
2016-Dec-03 00:55 043 2 gusting 4 6.1
2016-Dec-03 00:50 054 2 gusting 4 6.1
2016-Dec-03 00:45 072 3 gusting 4 6.1
2016-Dec-03 00:40 083 2 gusting 3 6.1
2016-Dec-03 00:35 6.1
2016-Dec-03 00:30 090 0 gusting 2 6.1
2016-Dec-03 00:25 090 1 gusting 2 6.1
2016-Dec-03 00:20 076 1 gusting 1 6.1
2016-Dec-03 00:15 059 0 gusting 1 6.1
2016-Dec-03 00:10 057 1 gusting 1 6.1
2016-Dec-03 00:05 6.1
2016-Dec-03 00:00 6.1
2016-Dec-02 23:55 6.1
2016-Dec-02 23:50 6.1
2016-Dec-02 23:45 6.1
2016-Dec-02 23:40 6.1
2016-Dec-02 23:35 6.1
2016-Dec-02 23:30 6.1
2016-Dec-02 23:25 6.1
2016-Dec-02 23:20 6.1
2016-Dec-02 23:15 6.1
2016-Dec-02 23:10 6.7
2016-Dec-02 23:05 6.7
2016-Dec-02 23:00 6.7
2016-Dec-02 22:55 6.7
2016-Dec-02 22:50 6.7
2016-Dec-02 22:45 6.7
2016-Dec-02 22:40 6.7
2016-Dec-02 22:35 7.2
2016-Dec-02 22:30 7.2
2016-Dec-02 22:25 7.8
2016-Dec-02 22:20 126 0 gusting 1 7.8
2016-Dec-02 22:15 7.8
2016-Dec-02 22:10 7.2
2016-Dec-02 22:05 7.2
2016-Dec-02 22:00 7.2
2016-Dec-02 21:55 7.2
2016-Dec-02 21:50 7.2
2016-Dec-02 21:45 7.2
2016-Dec-02 21:40 7.8
2016-Dec-02 21:35 7.8
2016-Dec-02 21:30 7.8
2016-Dec-02 21:25 7.8
2016-Dec-02 21:20 7.8
2016-Dec-02 21:15 8.3
2016-Dec-02 21:10 8.3
2016-Dec-02 21:05 8.3
2016-Dec-02 21:00 8.3
2016-Dec-02 20:55 129 0 gusting 1 8.3
2016-Dec-02 20:50 8.3
2016-Dec-02 20:45 8.3
2016-Dec-02 20:40 7.8
2016-Dec-02 20:35 8.3
2016-Dec-02 20:30 8.3
2016-Dec-02 20:25 198 0 gusting 2 8.3
2016-Dec-02 20:20 181 1 gusting 3 8.9
2016-Dec-02 20:15 183 1 gusting 3 8.9
2016-Dec-02 20:10 184 1 gusting 3 8.9
2016-Dec-02 20:05 181 1 gusting 3 8.9
2016-Dec-02 20:00 9.4
2016-Dec-02 19:55 8.9
2016-Dec-02 19:50 9.4
2016-Dec-02 19:45 9.4
2016-Dec-02 19:40 9.4
2016-Dec-02 19:35 9.4
2016-Dec-02 19:30 9.4
2016-Dec-02 19:25 10.0
2016-Dec-02 19:20 10.0
2016-Dec-02 19:15 253 1 gusting 3 10.0
2016-Dec-02 19:10 267 1 gusting 3 10.0
2016-Dec-02 19:05 9.4
2016-Dec-02 19:00 9.4
2016-Dec-02 18:55 10.0
2016-Dec-02 18:50 222 0 gusting 2 10.0
2016-Dec-02 18:45 225 1 gusting 3 10.0
2016-Dec-02 18:40 227 1 gusting 3 10.0
2016-Dec-02 18:35 227 1 gusting 4 10.0
2016-Dec-02 18:30 225 2 gusting 6 10.0
2016-Dec-02 18:25 227 3 gusting 6 10.0
2016-Dec-02 18:20 227 4 gusting 6 10.0
2016-Dec-02 18:15 224 4 gusting 6 10.0
2016-Dec-02 18:10 226 4 gusting 6 10.0
2016-Dec-02 18:05 223 3 gusting 6 10.0
2016-Dec-02 18:00 218 6 gusting 6 10.6
2016-Dec-02 17:55 225 3 gusting 6 10.6
2016-Dec-02 17:50 229 4 gusting 6 10.6
2016-Dec-02 17:45 227 5 gusting 6 10.6
2016-Dec-02 17:40 225 4 gusting 6 10.6
2016-Dec-02 17:35 233 4 gusting 6 10.6
2016-Dec-02 17:30 237 5 gusting 6 10.6
2016-Dec-02 17:25 228 4 gusting 6 10.6
2016-Dec-02 17:20 216 5 gusting 6 10.6
2016-Dec-02 17:15 214 3 gusting 7 10.6
2016-Dec-02 17:10 219 4 gusting 7 10.6
2016-Dec-02 17:05 225 5 gusting 6 11.1
2016-Dec-02 17:00 228 4 gusting 6 11.1
2016-Dec-02 16:55 216 4 gusting 6 11.1
2016-Dec-02 16:50 222 3 gusting 6 11.1
2016-Dec-02 16:45 227 4 gusting 6 11.7
2016-Dec-02 16:40 222 5 gusting 6 11.7
2016-Dec-02 16:35 223 4 gusting 6 12.2
2016-Dec-02 16:30 223 4 gusting 6 12.2
2016-Dec-02 16:25 217 2 gusting 6 13.3
2016-Dec-02 16:20 218 3 gusting 6 13.3
2016-Dec-02 16:15 217 4 gusting 6 13.9
2016-Dec-02 16:10 205 4 gusting 6 13.9
2016-Dec-02 16:05 203 3 gusting 6 14.4
2016-Dec-02 16:00 218 1 gusting 5 14.4
2016-Dec-02 15:55 211 3 gusting 5 15.0
2016-Dec-02 15:50 184 2 gusting 5 15.6
2016-Dec-02 15:45 197 0 gusting 5 15.0
2016-Dec-02 15:40 213 2 gusting 5 14.4
2016-Dec-02 15:35 218 2 gusting 6 13.9
2016-Dec-02 15:30 225 3 gusting 6 13.3
2016-Dec-02 15:25 219 3 gusting 5 14.4
2016-Dec-02 15:20 179 3 gusting 3 15.6
2016-Dec-02 15:15 16.1
2016-Dec-02 15:10 163 1 gusting 3 16.7
2016-Dec-02 15:05 155 1 gusting 3 17.2
2016-Dec-02 15:00 090 0 gusting 1 16.7
2016-Dec-02 14:55 15.6
2016-Dec-02 14:50 120 1 gusting 4 15.6
2016-Dec-02 14:45 114 2 gusting 4 15.0
2016-Dec-02 14:40 091 1 gusting 4 15.0
2016-Dec-02 14:35 095 1 gusting 4 15.0
2016-Dec-02 14:30 112 3 gusting 4 16.1
2016-Dec-02 14:25 16.7
2016-Dec-02 14:20 123 1 gusting 3 16.7
2016-Dec-02 14:15 130 1 gusting 3 16.7
2016-Dec-02 14:10 104 1 gusting 2 16.1
2016-Dec-02 14:05 16.1
2016-Dec-02 14:00 111 1 gusting 3 16.1
2016-Dec-02 13:55 15.6
2016-Dec-02 13:50 115 1 gusting 3 15.6
2016-Dec-02 13:45 129 1 gusting 3 16.1
2016-Dec-02 13:40 148 0 gusting 2 15.6
2016-Dec-02 13:35 199 0 gusting 3 14.4
2016-Dec-02 13:30 181 1 gusting 3 13.9
2016-Dec-02 13:25 154 0 gusting 6 13.9
2016-Dec-02 13:20 144 1 gusting 6 14.4
2016-Dec-02 13:15 124 2 gusting 6 15.0
2016-Dec-02 13:10 110 2 gusting 6 15.0
2016-Dec-02 13:05 116 1 gusting 4 16.1
2016-Dec-02 13:00 140 0 gusting 3 16.1
2016-Dec-02 12:55 105 0 gusting 5 15.0
2016-Dec-02 12:50 087 1 gusting 5 13.9
2016-Dec-02 12:45 090 1 gusting 5 14.4
2016-Dec-02 12:40 119 1 gusting 5 15.0
2016-Dec-02 12:35 15.0
2016-Dec-02 12:30 101 3 gusting 6 13.9
2016-Dec-02 12:25 079 3 gusting 6 13.3
2016-Dec-02 12:20 084 5 gusting 6 13.9
2016-Dec-02 12:15 097 2 gusting 5 14.4
2016-Dec-02 12:10 111 1 gusting 4 15.0
2016-Dec-02 12:05 096 1 gusting 3 13.9
2016-Dec-02 12:00 085 1 gusting 5 13.3
2016-Dec-02 11:55 078 1 gusting 6 12.8
2016-Dec-02 11:50 070 2 gusting 7 12.2
2016-Dec-02 11:45 056 3 gusting 7 12.2
2016-Dec-02 11:40 035 3 gusting 4 12.2
2016-Dec-02 11:35 040 2 gusting 3 12.2
2016-Dec-02 11:30 090 1 gusting 3 12.2
2016-Dec-02 11:25 124 0 gusting 3 12.2
2016-Dec-02 11:20 113 2 gusting 3 12.8
2016-Dec-02 11:15 106 1 gusting 3 12.8
2016-Dec-02 11:10 114 1 gusting 3 12.2
2016-Dec-02 11:05 116 1 gusting 2 12.2
2016-Dec-02 11:00 118 0 gusting 3 11.7
2016-Dec-02 10:55 124 1 gusting 3 11.1
2016-Dec-02 10:50 102 1 gusting 4 11.1
2016-Dec-02 10:45 093 1 gusting 4 11.1
2016-Dec-02 10:40 116 0 gusting 2 11.1
2016-Dec-02 10:35 11.1
2016-Dec-02 10:30 092 1 gusting 5 11.1
2016-Dec-02 10:25 094 3 gusting 5 11.7
2016-Dec-02 10:20 070 0 gusting 5 10.6
2016-Dec-02 10:15 046 2 gusting 6 10.6
2016-Dec-02 10:10 047 3 gusting 6 10.0
2016-Dec-02 10:05 062 4 gusting 6 10.6
2016-Dec-02 10:00 084 3 gusting 5 10.6
2016-Dec-02 09:55 087 1 gusting 4 10.0
2016-Dec-02 09:50 109 1 gusting 3 9.4
2016-Dec-02 09:45 095 0 gusting 3 9.4
2016-Dec-02 09:40 091 1 gusting 3 9.4
2016-Dec-02 09:35 104 1 gusting 3 9.4
2016-Dec-02 09:30 099 1 gusting 3 9.4
2016-Dec-02 09:25 112 1 gusting 2 9.4
2016-Dec-02 09:20 139 0 gusting 2 9.4
2016-Dec-02 09:15 133 0 gusting 2 8.9
2016-Dec-02 09:10 122 1 gusting 2 8.3
2016-Dec-02 09:05 120 1 gusting 2 8.3
2016-Dec-02 09:00 103 1 gusting 3 8.3
2016-Dec-02 08:55 092 1 gusting 3 8.3
2016-Dec-02 08:50 106 1 gusting 3 8.3
2016-Dec-02 08:45 118 1 gusting 2 8.3
2016-Dec-02 08:40 106 1 gusting 3 8.3
2016-Dec-02 08:35 092 1 gusting 3 8.3
2016-Dec-02 08:30 090 2 gusting 3 8.3
2016-Dec-02 08:25 103 0 gusting 3 8.3
2016-Dec-02 08:20 103 1 gusting 3 7.8
2016-Dec-02 08:15 091 3 gusting 3 7.8
2016-Dec-02 08:10 069 1 gusting 3 7.8
2016-Dec-02 08:05 063 1 gusting 3 8.3
2016-Dec-02 08:00 083 1 gusting 3 7.8
2016-Dec-02 07:55 7.8
2016-Dec-02 07:50 7.8
2016-Dec-02 07:45 8.3
2016-Dec-02 07:40 7.8
2016-Dec-02 07:35 152 1 gusting 2 7.8
2016-Dec-02 07:30 7.8
2016-Dec-02 07:25 189 1 gusting 3 7.8
2016-Dec-02 07:20 7.8
2016-Dec-02 07:15 126 1 gusting 2 7.8
2016-Dec-02 07:10 118 0 gusting 2 7.8
2016-Dec-02 07:05 107 1 gusting 2 7.8
2016-Dec-02 07:00 114 0 gusting 1 7.8
2016-Dec-02 06:55 123 0 gusting 1 7.8
2016-Dec-02 06:50 111 0 gusting 1 7.8
2016-Dec-02 06:45 7.8
2016-Dec-02 06:40 7.8
2016-Dec-02 06:35 140 0 gusting 2 7.8
2016-Dec-02 06:30 143 0 gusting 2 7.8
2016-Dec-02 06:25 112 1 gusting 1 7.8
2016-Dec-02 06:20 7.8
2016-Dec-02 06:15 095 0 gusting 1 7.8
2016-Dec-02 06:10 7.2
2016-Dec-02 06:05 7.8
2016-Dec-02 06:00 7.8
2016-Dec-02 05:55 7.8
2016-Dec-02 05:50 164 1 gusting 2 7.8
2016-Dec-02 05:45 152 1 gusting 2 7.2
2016-Dec-02 05:40 7.2
2016-Dec-02 05:35 7.2
2016-Dec-02 05:30 7.2
2016-Dec-02 05:25 7.8
2016-Dec-02 05:20 7.8
2016-Dec-02 05:15 7.8
2016-Dec-02 05:10 7.8
2016-Dec-02 05:05 088 0 gusting 1 7.8
2016-Dec-02 05:00 103 0 gusting 2 7.8
2016-Dec-02 04:55 099 1 gusting 3 7.8
2016-Dec-02 04:50 095 1 gusting 3 7.8
2016-Dec-02 04:45 100 2 gusting 3 7.8
2016-Dec-02 04:40 100 1 gusting 3 7.8
2016-Dec-02 04:35 097 1 gusting 3 7.8
2016-Dec-02 04:30 103 1 gusting 3 8.3
2016-Dec-02 04:25 108 1 gusting 3 8.3
2016-Dec-02 04:20 096 1 gusting 1 8.3
2016-Dec-02 04:15 8.3
2016-Dec-02 04:10 092 0 gusting 1 8.3
2016-Dec-02 04:05 8.3
2016-Dec-02 04:00 8.3
2016-Dec-02 03:55 121 0 gusting 1 8.3
2016-Dec-02 03:50 111 0 gusting 2 8.3
2016-Dec-02 03:45 107 1 gusting 3 8.3
2016-Dec-02 03:40 102 1 gusting 3 8.3
2016-Dec-02 03:35 091 1 gusting 4 8.3
2016-Dec-02 03:30 090 1 gusting 4 8.3
2016-Dec-02 03:25 092 1 gusting 3 8.3
2016-Dec-02 03:20 092 1 gusting 3 8.3
2016-Dec-02 03:15 090 1 gusting 1 8.3
2016-Dec-02 03:10 090 0 gusting 1 8.3
2016-Dec-02 03:05 8.3
2016-Dec-02 03:00 8.3
2016-Dec-02 02:55 101 0 gusting 1 8.3
2016-Dec-02 02:50 8.3
2016-Dec-02 02:45 8.9
2016-Dec-02 02:40 087 1 gusting 1 8.9
2016-Dec-02 02:35 090 1 gusting 1 8.9
2016-Dec-02 02:30 090 1 gusting 2 8.9
2016-Dec-02 02:25 099 1 gusting 2 8.9
2016-Dec-02 02:20 098 1 gusting 3 8.9
2016-Dec-02 02:15 090 1 gusting 3 8.9
2016-Dec-02 02:10 098 2 gusting 3 8.9
2016-Dec-02 02:05 103 1 gusting 2 8.9
2016-Dec-02 02:00 106 1 gusting 2 8.9